This is the latest recevied weather packets stored in our database for station/object KE8ZLU. If no packets are shown the sender has not sent any weather packets the latest 10 day(s).
| Time | Temp. | Humidity | Pressure | Rain* | Wind** | Luminosity | Snow |
|---|---|---|---|---|---|---|---|
| 1778181675 | 11.11° C | 46% | 1013.8 hPa | 0 mm | - | 810 W/m² | - |
| 1778181370 | 10.56° C | 47% | 1013.8 hPa | 0 mm | - | 552 W/m² | - |
| 1778181067 | 10.56° C | 46% | 1013.9 hPa | 0 mm | - | 157 W/m² | - |
| 1778180764 | 11.11° C | 45% | 1014 hPa | 0 mm | - | 197 W/m² | - |
| 1778180463 | 11.11° C | 46% | 1013.9 hPa | 0 mm | - | 629 W/m² | - |
| 1778180161 | 10.56° C | 46% | 1013.8 hPa | 0 mm | - | 786 W/m² | - |
| 1778179857 | 11.11° C | 43% | 1013.7 hPa | 0 mm | - | 640 W/m² | - |
| 1778179555 | 11.11° C | 46% | 1013.6 hPa | 0 mm | - | 235 W/m² | - |
| 1778179253 | 10.56° C | 47% | 1013.8 hPa | 0 mm | - | 316 W/m² | - |
| 1778178949 | 10.56° C | 46% | 1013.7 hPa | 0 mm | - | 200 W/m² | - |
| 1778178646 | 10.56° C | 45% | 1013.7 hPa | 0 mm | - | 872 W/m² | - |
| 1778178342 | 10.56° C | 46% | 1013.6 hPa | 0 mm | - | 343 W/m² | - |
| 1778178038 | 10.56° C | 45% | 1013.6 hPa | 0 mm | - | 564 W/m² | - |
| 1778177736 | 11.11° C | 47% | 1013.8 hPa | 0 mm | - | 269 W/m² | - |
| 1778177431 | 11.11° C | 48% | 1013.8 hPa | 0 mm | - | 619 W/m² | - |
| 1778177128 | 11.11° C | 45% | 1013.9 hPa | 0 mm | - | 219 W/m² | - |
| 1778176825 | 10.56° C | 47% | 1013.8 hPa | 0 mm | - | 434 W/m² | - |
| 1778176521 | 10.56° C | 48% | 1013.7 hPa | 0 mm | - | 377 W/m² | - |
| 1778176219 | 10.56° C | 48% | 1014 hPa | 0 mm | - | 262 W/m² | - |
| 1778175916 | 10.56° C | 47% | 1013.9 hPa | 0 mm | - | 497 W/m² | - |
| 1778175614 | 10.56° C | 46% | 1013.8 hPa | 0 mm | - | 599 W/m² | - |
| 1778175310 | 11.11° C | 45% | 1014.1 hPa | 0 mm | - | 409 W/m² | - |
| 1778175008 | 11.11° C | 47% | 1014.3 hPa | 0 mm | - | 544 W/m² | - |
| 1778174703 | 11.11° C | 47% | 1014.2 hPa | 0 mm | - | 370 W/m² | - |
| 1778174400 | 11.11° C | 48% | 1014.3 hPa | 0 mm | - | 843 W/m² | - |
* Rain latest hour (hover to see other rain measurements)
** Current wind speed in m/s (hover to see current wind gust speed)